Regional Weather Roundup
Issued by NWS Charleston, WV

Home | Current Version | Previous Version | Text Only | Print | Product List | Glossary Off
Versions: 1 2 3 4 5 6 7 8 9 10 11 12 13 14 15 16 17 18 19 20 21 22 23 24 25 26 27 28 29 30 31 32 33 34 35 36 37 38 39 40 41 42 43 44 45 46 47 48 49 50

000
ASUS41 KRLX 291110
RWRRLX
West Virginia Regional Weather Roundup
National Weather Service Charleston WV
700 AM EDT SAT AUG 29 2015

Note: "fair" indicates few or no clouds below 12,000 feet with no
significant weather and/or obstructions to visibility.

WVZ003-291200-
Northern Panhandle of West Virginia

CITY           SKY/WX    TMP DP  RH WIND       PRES   REMARKS
WHEELING       CLEAR     58  55  90 CALM      30.18R FOG
$$

WVZ009-291200-
Northwest West Virginia

CITY           SKY/WX    TMP DP  RH WIND       PRES   REMARKS
PARKERSBURG    FOG       56  55  97 CALM      30.19R VSB<1/4
$$

WVZ006-291200-
Western West Virginia

CITY           SKY/WX    TMP DP  RH WIND       PRES   REMARKS
HUNTINGTON     PTCLDY    59  59 100 CALM      30.16R
$$

WVZ015-291200-
West Central West Virginia

CITY           SKY/WX    TMP DP  RH WIND       PRES   REMARKS
CHARLESTON     PTCLDY    60  58  92 CALM      30.18R FOG
$$

WVZ022-031-291200-
North Central West Virginia

CITY           SKY/WX    TMP DP  RH WIND       PRES   REMARKS
CLARKSBURG     PTCLDY    56  54  93 CALM      30.20R
MORGANTOWN     CLEAR     58  52  80 CALM      30.20R
$$

WVZ025-035-042-045-291200-
Southern West Virginia

CITY           SKY/WX    TMP DP  RH WIND       PRES   REMARKS
BECKLEY        PTCLDY    64  56  75 SE8       30.26R
LOGAN            N/A     64  61  88 CALM      30.21R
BLUEFIELD      CLEAR     65  55  70 CALM      30.28S
LEWISBURG      FOG       57  55  95 N3        30.27R VSB 1/4
$$

WVZ047-291200-
Northern Mountains of West Virginia

CITY           SKY/WX    TMP DP  RH WIND       PRES   REMARKS
ELKINS         FOG       53  51  93 CALM      30.26R VSB 1/4
$$

WVZ052-291200-
Eastern Panhandle of West Virginia

CITY           SKY/WX    TMP DP  RH WIND       PRES   REMARKS
MARTINSBURG    CLEAR     57  56  96 CALM      30.19R FOG
PETERSBURG     CLEAR     55  54  99 CALM      30.22R FOG
$$



USA.gov is the U.S. government's official web portal to all federal, state and local government web resources and services.